Vertical_Velocity
-1 -3 -3 -2 -3 -4 -3 -3 -4 -5 -4 -6 -7 -7 -5 -6 -6 -6 -5 -4 -4 -5 -6 -6 -5 -5 -5 -4 -3 -2 -2 -2 -2 -1 -0 1 1 1 1 0 0 0 0 0 1 1 0 0 0 -0 -1 -1 -2 -2 -3 -2 -1 -2 -2 -3 -3 -3 -2 -1 -1 -1 -1 -1 -0 1 6 10 12 13 12 6 2 0 -1 4 10 16 18 12 6 1
-2 -2 -2 -3 -4 -4 -4 -3 -3 -4 -4 -6 -6 -7 -7 -7 -7 -8 -9 -7 -5 -4 -6 -7 -7 -6 -6 -4 -3 -3 -3 -2 -3 -3 -2 -0 1 1 2 2 2 2 1 1 1 1 1 1 0 -0 -1 -1 -0 -1 -2 -2 -1 -1 -1 -2 -2 -3 -2 -2 -1 -0 -1 -1 -1 -1 1 6 11 13 13 11 7 4 0 3 9 15 19 15 8 2
-5 -4 -3 -5 -4 -4 -5 -6 -5 -3 -4 -5 -5 -5 -7 -7 -6 -7 -9 -9 -8 -6 -6 -7 -8 -8 -8 -6 -4 -3 -2 -2 -3 -3 -3 -2 -2 -1 1 1 2 2 2 2 2 2 1 1 0 -1 -2 -1 1 2 2 2 0 -1 -1 -1 -2 -2 -2 -2 -1 -1 -0 -0 -1 -1 -2 2 6 9 10 11 10 8 4 4 7 12 18 17 11 4
-4 -4 -4 -6 -6 -4 -3 -6 -6 -5 -5 -6 -5 -5 -6 -7 -7 -6 -7 -8 -8 -7 -6 -7 -7 -8 -9 -9 -8 -6 -4 -3 -3 -3 -3 -3 -3 -2 -1 -0 1 1 2 2 1 1 1 1 0 -0 -2 -3 -2 -0 4 7 5 1 -2 -1 -1 -2 -3 -2 -2 -1 -1 -1 -1 -2 -2 -1 3 7 9 8 9 9 7 5 6 10 16 19 14 8
-3 -3 -3 -6 -7 -6 -5 -6 -6 -6 -7 -7 -7 -7 -7 -8 -8 -8 -8 -8 -9 -9 -8 -8 -8 -8 -8 -9 -10 -9 -7 -5 -4 -4 -3 -3 -3 -3 -2 -1 -0 1 1 1 1 1 1 0 -0 -0 -1 -3 -5 -4 0 9 10 5 -2 -2 -2 -2 -3 -3 -2 -2 -1 -1 -1 -2 -2 -2 1 4 7 7 7 7 7 6 7 10 14 18 17 12
-4 -3 -4 -5 -6 -7 -8 -7 -7 -7 -9 -7 -7 -7 -8 -8 -8 -10 -11 -11 -11 -11 -10 -10 -10 -10 -9 -9 -10 -10 -9 -8 -7 -6 -5 -4 -3 -2 -2 -1 -0 -0 -0 -0 0 1 1 1 0 -0 -1 -2 -4 -5 -3 8 14 13 3 -2 -3 -3 -3 -3 -3 -2 -2 -1 -1 -1 -2 -2 -1 1 4 6 6 6 7 7 8 9 12 16 17 14
-5 -4 -5 -5 -4 -4 -7 -7 -6 -6 -7 -7 -7 -7 -9 -8 -8 -8 -9 -9 -9 -10 -11 -10 -10 -10 -10 -10 -10 -10 -10 -9 -9 -8 -7 -6 -4 -2 -1 -0 -0 -0 -0 0 0 1 1 1 1 1 0 -1 -2 -3 -5 2 11 15 8 -1 -4 -4 -3 -3 -3 -3 -2 -1 -1 -1 -2 -2 -1 1 2 5 6 7 6 6 7 9 11 15 15 13
-5 -4 -3 -5 -5 -3 -1 -2 -4 -5 -5 -3 -4 -8 -11 -9 -6 -5 -7 -6 -5 -6 -9 -10 -9 -9 -10 -12 -12 -11 -10 -10 -11 -10 -9 -8 -6 -4 -2 -1 -1 -0 0 1 1 1 1 1 1 1 1 1 1 1 -2 1 8 11 7 -1 -4 -4 -3 -4 -3 -3 -3 -2 -1 -1 -1 -2 -1 -0 1 3 5 6 6 5 6 9 11 15 15 12
-4 -4 -1 -2 -5 -6 -4 -0 -1 -3 -7 -2 -1 -3 -9 -9 -7 -5 -4 -4 -3 -3 -6 -8 -8 -8 -9 -11 -12 -11 -10 -10 -10 -10 -8 -7 -6 -5 -4 -3 -2 -2 -1 1 2 2 2 2 2 3 3 2 2 1 -1 2 6 9 8 3 -0 -3 -3 -3 -4 -4 -3 -2 -2 -1 -1 -1 -1 -0 0 1 2 3 4 3 5 8 11 14 15 13
-3 -4 -3 -0 -2 -5 -7 -4 -1 -2 -6 -4 0 2 -1 -6 -7 -7 -6 -5 -5 -5 -5 -4 -5 -6 -8 -8 -9 -10 -11 -11 -11 -9 -8 -5 -3 -2 -3 -3 -3 -3 -2 -0 0 1 1 3 4 4 4 3 2 1 -1 0 2 5 8 8 5 1 -2 -3 -4 -4 -4 -3 -2 -1 -1 -1 -1 -0 0 0 0 1 1 1 3 6 9 12 15 16
-3 -3 -4 -3 -2 -2 -4 -4 -3 -3 -5 -6 -3 1 4 -1 -5 -8 -7 -7 -8 -9 -9 -3 -1 -2 -7 -9 -8 -7 -9 -11 -12 -11 -12 -10 -6 -3 -2 -3 -3 -3 -1 -1 -2 -2 -0 2 4 5 5 5 4 3 2 0 -0 1 4 8 9 7 2 -1 -3 -4 -4 -3 -2 -2 -1 -0 -0 0 0 1 1 1 1 1 2 4 7 9 12 14
-4 -4 -4 -4 -4 -4 -5 -4 -3 -3 -4 -7 -7 -5 -1 0 -3 -7 -4 -3 -5 -8 -13 -8 -2 1 -3 -8 -8 -7 -6 -9 -10 -10 -12 -13 -11 -8 -6 -7 -6 -5 -3 -4 -5 -4 -1 1 2 3 4 6 6 6 5 3 1 -1 -2 3 8 12 12 6 2 -2 -3 -3 -3 -2 -1 -0 0 1 1 1 1 2 2 2 2 4 7 8 9 10
-2 -3 -3 -3 -3 -4 -6 -6 -5 -4 -4 -5 -6 -6 -3 -2 -3 -5 -4 -1 -1 -3 -10 -11 -7 -3 -2 -6 -6 -5 -4 -7 -8 -8 -10 -12 -12 -10 -9 -10 -9 -7 -6 -9 -11 -9 -3 -1 -1 0 4 5 5 6 6 6 4 2 -2 -3 -0 6 14 15 10 3 -2 -3 -3 -2 -1 -0 1 1 1 2 2 2 2 3 3 3 5 7 7 7
-2 -1 -1 -2 -3 -4 -5 -4 -4 -3 -3 -3 -4 -4 -3 -2 -2 -3 -5 -4 -2 -1 -6 -7 -6 -5 -4 -6 -5 -3 -2 -4 -6 -9 -11 -11 -10 -9 -10 -11 -9 -7 -6 -12 -15 -13 -5 -3 -4 -4 0 2 3 3 5 5 6 5 3 -1 -3 -2 4 11 11 7 -0 -2 -3 -3 -2 -1 -0 1 2 2 2 2 3 3 3 2 2 3 4 5
-1 -1 -1 -2 -3 -4 -4 -4 -3 -2 -2 -3 -4 -5 -5 -3 -2 -2 -4 -5 -5 -5 -6 -8 -8 -6 -4 -4 -5 -4 -2 -1 -3 -6 -12 -14 -12 -9 -8 -11 -11 -9 -6 -10 -14 -14 -7 -5 -5 -5 -3 -3 -2 0 3 3 3 3 3 1 -1 -2 0 4 6 5 2 -1 -3 -3 -3 -2 -1 0 2 2 2 2 3 4 3 1 -1 -1 1 3
-1 -1 -0 -2 -3 -3 -3 -3 -3 -3 -4 -3 -3 -4 -4 -4 -2 -1 -2 -4 -5 -5 -5 -9 -13 -16 -15 -9 -5 -3 -2 1 0 -3 -10 -18 -18 -13 -6 -8 -11 -12 -9 -10 -11 -11 -8 -7 -5 -3 -2 -6 -7 -4 -1 -1 -1 -1 -1 -2 -2 -1 2 4 3 2 2 2 -0 -2 -3 -2 -1 0 1 1 1 2 4 4 3 1 -1 -2 -1 -0
-0 -1 -1 -2 -3 -4 -4 -2 -1 -2 -4 -4 -3 -1 -1 -1 -2 -1 -1 -2 -3 -3 -2 -3 -7 -13 -22 -24 -17 -8 -1 3 3 0 -7 -18 -21 -17 -7 -4 -5 -9 -12 -14 -12 -8 -4 -7 -6 -3 -0 -4 -6 -7 -8 -7 -6 -5 -5 -5 -5 -3 0 3 3 2 2 4 3 1 -2 -1 -1 1 1 2 3 4 6 6 4 1 -1 -1 -1 -0
-0 -2 -3 -2 -3 -4 -6 -4 -3 -2 -1 -3 -4 -3 -1 -1 -1 -1 -0 -0 -1 -1 -2 -0 -0 -2 -8 -19 -23 -18 -3 4 6 4 -2 -16 -22 -21 -10 -3 -1 -3 -9 -14 -12 -7 -0 -3 -3 -1 1 1 0 -3 -7 -9 -10 -10 -9 -7 -6 -4 -2 1 3 4 3 2 3 3 3 1 0 1 2 4 6 8 8 7 4 1 -1 -0 1 2
-1 -0 -1 -1 -2 -3 -4 -5 -4 -3 -1 -2 -4 -5 -5 -5 -4 -2 -1 0 1 1 1 0 -1 -3 -3 -11 -19 -18 -3 7 11 9 2 -13 -23 -24 -13 -5 -3 -4 -8 -12 -10 -4 1 -1 -1 1 3 5 5 4 1 -4 -9 -12 -12 -9 -7 -5 -4 -2 0 3 4 2 1 1 3 6 5 3 3 5 7 8 8 6 3 -1 -2 -1 2 4
-1 -1 -1 -2 -1 -1 -2 -3 -3 -1 -0 -0 0 -1 -3 -5 -5 -3 -3 -3 -0 3 4 4 1 -3 -5 -12 -18 -17 -4 9 14 10 1 -10 -19 -22 -14 -4 -2 -5 -12 -15 -11 -3 2 -0 -2 -2 -1 2 5 7 7 4 -2 -7 -12 -11 -8 -5 -3 -3 -3 -1 2 3 2 0 0 6 9 10 8 6 5 5 5 4 1 -2 -3 -2 0 3
-1 -2 -3 -1 -0 -0 -2 -4 -4 -2 -0 1 2 2 0 -2 -3 -4 -5 -3 -0 3 6 7 4 -1 -2 -7 -14 -16 -3 13 15 8 -3 -12 -18 -21 -15 -4 0 -3 -13 -18 -13 -4 3 1 -1 -3 -4 -2 2 5 8 7 6 2 -6 -10 -10 -7 -4 -4 -4 -5 -3 0 2 2 -0 3 9 14 14 7 3 1 2 2 1 -1 -2 -2 -0 2
-1 -3 -3 1 3 3 -0 -2 -3 -2 -0 2 4 5 4 4 2 -0 -4 -2 0 2 3 2 -1 -4 -4 -7 -13 -13 -1 12 14 10 2 -6 -17 -24 -18 -4 2 -1 -12 -18 -15 -6 2 2 -1 -4 -4 -2 1 4 6 7 8 6 2 -4 -8 -9 -8 -6 -6 -7 -8 -4 -1 1 0 -1 3 10 16 9 4 0 -0 1 1 0 -1 -0 1 2
-3 -3 -3 1 4 5 3 0 -1 -1 1 3 6 7 8 10 9 6 2 2 2 0 -2 -5 -7 -9 -8 -9 -11 -11 -5 5 10 12 13 6 -9 -22 -21 -5 1 -2 -13 -15 -12 -6 -2 -0 -2 -4 -5 -3 -1 2 4 6 6 7 6 3 -1 -5 -9 -8 -8 -9 -10 -8 -6 -3 -1 -3 -1 4 12 11 6 2 -1 -0 -0 0 0 1 1 2
-3 -3 -2 -1 0 2 3 4 3 3 4 6 6 6 6 7 8 8 7 7 5 2 -2 -5 -7 -9 -11 -7 -6 -7 -7 3 10 14 16 8 -6 -19 -21 -6 -0 -4 -16 -14 -7 -1 -2 -5 -5 -4 -3 -4 -2 -0 1 3 4 5 6 6 5 1 -5 -7 -8 -8 -10 -11 -10 -7 -5 -4 -3 -1 7 11 8 3 -0 -1 -1 -0 0 1 2 2
1 -0 -2 -3 -2 1 4 5 6 7 8 8 6 4 1 3 7 11 13 9 4 -0 -3 -2 -1 -1 -4 -3 -5 -8 -10 3 11 15 13 3 -11 -22 -24 -7 2 1 -14 -15 -8 1 1 -7 -10 -9 -5 -4 -4 -3 -2 -0 3 5 5 6 6 4 -1 -5 -7 -8 -9 -10 -11 -10 -9 -6 -5 -2 6 9 7 3 0 -1 -1 -0 1 2 3 3
4 3 1 0 0 1 2 3 4 5 6 8 6 4 4 8 12 13 9 2 -2 -2 0 6 7 5 -0 -2 -7 -11 -11 -1 7 11 11 6 -6 -18 -25 -9 4 7 -6 -13 -9 -2 2 -8 -13 -13 -8 -5 -4 -3 -3 -0 2 4 4 5 7 7 5 0 -4 -6 -8 -10 -11 -12 -12 -9 -6 1 11 12 8 3 1 0 0 0 1 3 4 4
1 -0 -0 -1 -1 -1 -0 0 1 2 3 6 7 8 10 12 11 7 -3 -6 -4 1 8 11 8 1 -5 -6 -9 -11 -10 -3 1 4 8 11 4 -7 -20 -9 3 8 1 -9 -9 -4 2 -6 -12 -14 -8 -4 -2 -2 -1 1 3 3 2 2 4 6 9 7 3 -2 -7 -8 -10 -12 -14 -12 -5 5 21 20 14 6 2 2 1 1 2 4 4 3
-2 -2 -3 -3 -2 -1 -1 -0 1 2 3 4 5 7 9 10 7 2 -6 -5 -1 3 6 6 4 -0 -5 -8 -11 -12 -8 -3 0 3 7 12 7 -3 -16 -6 3 7 5 -6 -11 -8 2 -2 -7 -10 -7 -2 1 1 -0 1 2 3 3 1 1 2 5 8 7 3 -3 -6 -8 -11 -14 -12 -6 4 17 18 14 9 3 2 1 1 2 4 3 1
-2 -2 -2 -2 -1 0 1 1 1 1 2 3 4 5 7 8 6 3 -2 -1 1 2 0 -1 -1 0 -1 -7 -11 -12 -8 -2 2 5 8 9 1 -9 -13 -1 4 6 7 -1 -10 -14 -6 -2 -1 -1 -2 1 3 3 1 1 1 2 2 1 -0 -0 2 7 8 7 2 -2 -6 -9 -12 -10 -6 -2 3 8 9 8 4 1 0 0 2 4 3 -0
-3 -3 -3 -2 -1 1 1 1 1 1 2 2 3 4 5 6 6 4 2 2 3 3 1 -1 -1 1 2 -2 -6 -11 -13 -9 -1 6 11 9 -1 -9 -7 4 6 6 10 8 -1 -12 -19 -11 -1 6 4 2 1 1 -0 -1 -1 -1 -1 -2 -2 -2 -0 6 10 12 10 5 -1 -6 -8 -5 -3 -3 -3 1 5 7 6 3 1 -0 1 4 3 1
-4 -4 -5 -4 -2 0 1 1 1 0 1 1 2 3 4 4 4 4 4 6 7 8 7 5 4 5 6 7 4 -3 -16 -21 -12 3 15 14 6 -1 2 7 3 -1 7 19 17 4 -18 -22 -13 -1 6 1 -2 -4 -4 -2 -3 -4 -5 -6 -6 -5 -5 -0 6 12 16 13 8 3 4 5 2 -2 -4 -1 3 6 6 4 2 0 -0 3 3 1
-4 -4 -5 -4 -3 -1 0 0 0 -0 -1 -1 0 1 2 2 3 3 4 7 11 14 14 11 8 5 3 7 7 2 -12 -22 -16 -1 16 18 10 1 2 7 1 -6 -3 13 21 19 6 -12 -16 -11 -1 -2 -5 -8 -8 -5 -3 -3 -5 -7 -8 -8 -7 -6 -3 3 11 14 13 12 17 16 10 2 -3 -2 1 4 5 5 4 2 1 2 2 0
-4 -4 -4 -3 -2 -1 -0 0 0 -0 -1 -2 -2 -1 0 1 2 3 4 6 8 10 11 9 5 1 -1 0 1 -1 -8 -14 -10 1 16 18 10 0 -4 0 -1 -5 -6 0 7 13 14 2 -8 -13 -10 -7 -6 -7 -9 -7 -5 -3 -2 -4 -6 -7 -8 -9 -9 -6 2 8 9 10 16 21 19 12 2 -0 1 3 5 5 4 4 3 2 1 -0
-4 -3 -2 -2 -2 -2 -2 -1 -1 -1 -2 -2 -3 -2 -1 1 2 3 4 4 5 6 6 5 3 1 -2 -2 -3 -6 -10 -13 -7 4 16 18 11 2 -5 -2 -1 -2 -2 -3 -2 0 1 -3 -5 -7 -12 -14 -9 -4 -2 -4 -5 -4 -1 0 -1 -4 -7 -11 -11 -8 -1 5 6 6 7 13 16 14 6 1 1 3 5 5 5 4 3 2 1 -0
-3 -3 -2 -3 -3 -4 -4 -3 -2 -1 -1 -2 -3 -3 -1 1 2 3 4 4 5 5 6 6 6 5 4 5 2 -3 -12 -16 -8 4 15 17 13 6 -1 -2 -0 2 3 -1 -2 -2 -5 -11 -8 -4 -4 -13 -15 -10 -1 1 -1 -4 -4 -1 0 -1 -4 -8 -9 -7 -2 2 3 3 2 5 8 9 5 0 -1 2 6 6 6 4 3 2 1 -1
-3 -3 -3 -3 -3 -3 -4 -3 -2 -1 -2 -5 -5 -3 -0 1 2 2 3 3 4 4 4 5 6 7 8 10 8 2 -9 -14 -9 1 10 14 14 11 4 -2 -1 4 7 1 -1 -1 -2 -9 -10 -8 -2 -7 -14 -17 -12 -5 -2 -4 -8 -6 -3 -2 -3 -6 -7 -6 -3 -1 -0 -1 -1 2 5 7 5 1 0 2 6 7 6 4 3 2 1 -1
-3 -4 -3 -3 -2 -2 -3 -2 -2 -3 -4 -5 -5 -3 -2 -1 -1 0 1 2 2 2 2 2 3 4 6 7 6 3 -3 -6 -5 -1 6 12 15 14 8 -0 -0 5 11 5 1 -1 -0 -4 -8 -10 -6 -5 -8 -13 -17 -14 -10 -9 -10 -7 -6 -5 -5 -5 -5 -4 -2 -1 -1 -2 -2 1 4 6 6 5 4 4 6 7 6 5 4 3 2 1
-2 -2 -3 -3 -3 -3 -3 -4 -4 -4 -3 -3 -4 -4 -4 -3 -3 -2 -1 -1 0 1 0 -1 -2 -1 1 2 2 2 1 0 -0 1 5 10 13 14 10 2 0 3 10 9 6 3 2 1 -3 -7 -9 -10 -9 -8 -8 -9 -10 -12 -12 -8 -5 -4 -4 -5 -5 -4 -2 -0 -0 -0 0 2 4 6 8 8 8 6 6 5 5 5 5 5 4 3
-2 -3 -3 -3 -3 -3 -3 -4 -4 -3 -2 -2 -2 -2 -3 -3 -3 -2 -1 -1 -0 0 1 0 -2 -3 -3 -2 -1 0 2 3 3 4 5 8 11 12 11 5 1 1 5 7 7 5 5 3 2 -1 -5 -9 -12 -12 -8 -5 -5 -7 -9 -9 -8 -7 -4 -3 -3 -3 -1 0 1 0 1 2 4 7 10 11 9 6 2 1 1 2 4 4 5 5
-2 -3 -3 -2 -2 -2 -2 -2 -2 -2 -2 -2 -2 -2 -2 -2 -2 -3 -2 -2 -0 1 2 2 1 -1 -3 -3 -2 -1 1 3 4 5 6 8 9 11 11 7 3 1 2 3 4 5 5 4 1 -1 -1 -3 -6 -9 -10 -8 -6 -4 -1 -4 -9 -12 -8 -4 -4 -4 -1 1 2 1 -0 -1 -1 1 5 7 6 3 -0 -3 -4 -3 1 4 5 4
-2 -3 -3 -3 -2 -1 -1 -1 -1 -1 -1 -2 -3 -3 -3 -2 -3 -5 -7 -6 -4 -2 0 1 -1 -4 -6 -4 -1 1 3 3 3 5 7 9 9 10 9 7 5 3 2 1 2 3 5 5 2 -0 -2 -2 -4 -5 -7 -7 -5 -1 4 1 -5 -9 -8 -6 -5 -5 -3 -0 1 1 0 -2 -4 -4 -1 4 5 4 2 -1 -4 -5 -3 2 5 5
-1 -2 -2 -2 -2 -2 -2 -2 -1 -1 -1 -1 -2 -2 -1 -0 -1 -3 -6 -8 -8 -6 -4 -3 -5 -9 -14 -14 -10 -3 3 4 5 7 8 9 9 8 7 6 6 5 3 1 0 1 3 6 5 3 1 0 -1 -4 -9 -10 -6 -0 4 2 -2 -6 -9 -10 -7 -3 -3 -2 -1 -1 0 -2 -4 -5 -3 1 4 5 3 1 -1 -2 -3 -0 4 6
-2 -2 -2 -1 -1 -1 -1 -1 -2 -2 -2 -2 -2 -2 -0 2 2 0 -2 -4 -5 -5 -4 -3 -3 -6 -11 -17 -18 -14 -7 -0 6 10 11 9 8 7 6 5 5 6 6 4 1 -0 1 5 6 6 3 4 3 -0 -7 -10 -9 -5 -1 2 3 1 -6 -13 -11 -5 -0 -1 -1 -1 -0 -2 -5 -7 -7 -3 0 2 2 2 1 -0 -2 -1 4 8
-1 -2 -2 -2 -2 -2 -2 -1 -1 -1 -2 -2 -3 -3 -1 1 1 0 -1 -3 -3 -3 -2 -2 -2 -4 -6 -10 -14 -16 -16 -9 -0 7 10 9 8 6 3 3 3 5 8 9 7 4 -0 1 2 4 5 6 4 -0 -6 -8 -9 -8 -6 -1 3 4 -1 -7 -7 -4 -1 -0 0 0 -0 -2 -5 -8 -9 -5 -1 0 0 0 -0 -1 -2 -2 1 5
-2 -2 -2 -2 -2 -1 -2 -2 -1 -1 -1 -2 -2 -3 -3 -1 -1 -1 -1 -2 -3 -3 -1 0 -1 -4 -7 -9 -10 -12 -15 -13 -8 -2 2 4 5 5 4 4 4 4 6 8 9 8 5 2 -1 -1 3 6 6 3 -2 -5 -7 -7 -7 -4 -1 0 -3 -4 -2 1 2 2 1 1 1 1 -2 -5 -8 -5 -1 1 1 0 -1 -2 -2 -2 -2 1
-3 -3 -2 -2 -1 -0 -1 -1 -1 -1 -1 -2 -3 -3 -3 -3 -2 -2 -0 0 -0 -1 0 2 2 0 -4 -6 -8 -9 -12 -13 -12 -9 -6 -3 0 3 6 6 7 6 6 5 6 7 8 6 3 1 1 3 4 3 1 1 -1 -3 -7 -5 -3 -3 -6 -6 -3 2 8 7 4 2 3 4 2 -1 -4 -3 -1 1 2 2 1 -0 -1 -2 -2 -1
-2 -2 -2 -1 -1 -0 -1 -0 -0 -1 -2 -3 -3 -3 -3 -4 -4 -3 -1 2 3 2 0 1 2 2 1 -2 -3 -6 -8 -11 -12 -11 -8 -6 -2 1 4 7 8 9 8 7 5 5 6 7 7 6 4 5 3 2 1 4 4 2 -2 -3 -2 -2 -5 -8 -6 0 9 7 4 2 4 5 3 1 -2 -3 -3 -2 1 3 3 2 -0 -1 -2 -1
-1 -1 -1 -1 -1 -1 -1 -1 -0 -0 -2 -3 -3 -3 -3 -3 -2 -1 0 1 3 3 1 -0 -0 0 -0 -1 -1 -1 -2 -5 -8 -9 -8 -6 -5 -2 -0 2 4 6 7 7 6 6 6 7 7 8 7 7 6 4 1 3 5 5 2 1 -0 -2 -5 -8 -7 -5 -2 -2 -2 -0 3 3 2 -1 -4 -6 -6 -6 -4 -1 1 2 1 -1 -2 -1
0 0 -1 -1 -1 -1 -2 -1 -0 0 -1 -2 -3 -4 -4 -3 -0 3 3 2 3 3 2 1 -0 -1 -2 -2 -2 -1 -0 -2 -4 -5 -6 -6 -6 -6 -6 -5 -4 -4 -3 -1 1 3 3 5 7 9 10 8 5 2 -2 1 5 7 6 3 1 -1 -4 -6 -7 -6 -5 -5 -4 -2 0 1 1 -0 -2 -5 -7 -8 -9 -6 -4 -1 0 -0 -1 -1
1 0 -0 -1 -1 -1 -1 -0 0 0 -1 -2 -3 -4 -5 -4 -2 0 2 2 3 2 2 2 1 -0 -2 -2 -2 -1 -1 -2 -3 -4 -4 -3 -3 -5 -7 -7 -8 -10 -12 -12 -9 -7 -6 -6 -2 3 9 11 9 5 -0 -1 3 7 8 5 3 1 -1 -4 -5 -4 -3 -3 -3 -3 -3 -2 -1 0 1 -1 -4 -7 -10 -9 -7 -3 0 0 -1 -1
-0 -0 -0 -0 -0 -0 -0 0 1 0 -1 -1 -2 -3 -4 -5 -4 -3 -1 0 1 1 1 1 2 1 -0 -2 -2 -2 -0 -0 -1 -2 -3 -2 -1 -1 -3 -4 -5 -6 -9 -12 -13 -13 -12 -14 -15 -13 -6 6 12 12 7 3 2 4 6 4 3 2 -0 -3 -3 -2 -0 -0 -1 -2 -3 -3 -2 -1 1 0 -2 -5 -8 -9 -7 -4 0 0 -1 -1
Height
1456 1455 1454 1454 1453 1451 1449 1449 1449 1448 1445 1444 1444 1443 1442 1441 1440 1439 1439 1439 1438 1437 1435 1434 1434 1433 1432 1432 1431 1431 1430 1430 1429 1429 1428 1427 1427 1426 1426 1425 1424 1424 1424 1423 1423 1422 1422 1421 1421 1420 1420 1420 1421 1421 1421 1421 1421 1421 1421 1421 1421 1420 1420 1419 1419 1419 1418 1419 1419 1420 1420 1420 1421 1421 1421 1422 1422 1423 1423 1424 1424 1425 1425 1425 1425 1426
1454 1453 1452 1451 1451 1449 1447 1447 1447 1446 1444 1443 1442 1441 1440 1439 1438 1437 1436 1436 1435 1434 1434 1432 1431 1430 1429 1428 1428 1428 1427 1426 1426 1425 1425 1424 1424 1423 1422 1422 1421 1420 1420 1419 1419 1419 1418 1418 1418 1417 1417 1418 1418 1418 1418 1418 1418 1418 1418 1418 1418 1418 1418 1417 1417 1416 1416 1416 1416 1417 1417 1417 1418 1418 1419 1420 1420 1421 1421 1422 1422 1422 1423 1423 1424 1424
1452 1451 1450 1449 1449 1447 1446 1444 1444 1444 1443 1441 1440 1439 1439 1437 1436 1435 1434 1433 1433 1432 1431 1430 1429 1428 1427 1426 1425 1424 1424 1423 1423 1422 1421 1421 1420 1419 1419 1418 1418 1417 1416 1416 1416 1415 1415 1414 1414 1414 1414 1414 1414 1415 1415 1415 1415 1415 1415 1415 1415 1415 1415 1414 1414 1414 1414 1414 1414 1414 1414 1414 1414 1415 1416 1417 1418 1418 1419 1419 1420 1420 1421 1421 1422 1423
1451 1449 1448 1447 1447 1445 1444 1443 1442 1441 1441 1440 1439 1438 1437 1436 1434 1434 1433 1432 1431 1429 1429 1428 1427 1426 1424 1424 1423 1422 1421 1421 1420 1419 1418 1418 1417 1416 1415 1415 1414 1414 1413 1412 1412 1412 1411 1411 1411 1411 1411 1411 1411 1411 1412 1412 1412 1412 1412 1412 1412 1412 1412 1411 1411 1411 1411 1411 1411 1411 1411 1412 1412 1412 1413 1414 1414 1415 1416 1417 1417 1417 1418 1419 1420 1420
1450 1449 1447 1446 1445 1444 1443 1442 1441 1440 1439 1438 1437 1436 1435 1434 1433 1432 1431 1430 1429 1428 1427 1426 1425 1424 1423 1422 1421 1420 1419 1418 1417 1416 1415 1414 1414 1413 1412 1412 1411 1410 1409 1409 1409 1408 1408 1408 1408 1408 1408 1408 1408 1408 1409 1409 1409 1409 1409 1409 1409 1409 1409 1409 1409 1408 1408 1408 1408 1408 1409 1409 1409 1409 1410 1411 1411 1412 1413 1414 1414 1415 1416 1417 1417 1418
1449 1448 1446 1445 1444 1442 1441 1440 1439 1439 1437 1436 1435 1434 1434 1432 1431 1430 1429 1428 1427 1426 1424 1424 1423 1422 1421 1420 1419 1418 1417 1416 1415 1414 1413 1412 1411 1410 1410 1409 1408 1407 1407 1406 1405 1405 1404 1404 1404 1404 1405 1405 1405 1405 1405 1406 1406 1406 1405 1405 1405 1405 1405 1405 1405 1405 1405 1405 1405 1405 1406 1406 1407 1407 1407 1408 1409 1409 1410 1411 1412 1412 1413 1414 1415 1416
1447 1446 1445 1444 1443 1441 1440 1439 1439 1438 1437 1435 1433 1432 1431 1430 1429 1428 1427 1426 1425 1424 1423 1422 1421 1420 1419 1419 1417 1416 1415 1414 1412 1411 1410 1409 1409 1408 1407 1406 1405 1404 1404 1403 1403 1402 1401 1401 1401 1401 1401 1402 1402 1402 1402 1402 1403 1403 1402 1402 1402 1402 1402 1402 1402 1402 1402 1402 1402 1403 1403 1403 1404 1404 1405 1405 1406 1406 1407 1408 1409 1409 1410 1411 1412 1413
1445 1444 1444 1443 1441 1440 1439 1439 1438 1437 1436 1434 1433 1431 1429 1428 1427 1427 1426 1425 1424 1423 1422 1420 1419 1418 1418 1417 1415 1414 1413 1411 1410 1409 1408 1407 1406 1405 1404 1404 1403 1402 1401 1400 1400 1399 1399 1398 1397 1398 1398 1398 1398 1399 1399 1399 1399 1399 1399 1399 1399 1399 1399 1399 1399 1399 1399 1399 1399 1399 1400 1400 1401 1401 1402 1402 1403 1404 1404 1405 1406 1407 1408 1409 1409 1410
1445 1443 1442 1442 1441 1439 1438 1436 1437 1437 1436 1434 1432 1431 1429 1427 1425 1424 1424 1424 1423 1422 1421 1419 1417 1415 1415 1414 1414 1412 1411 1410 1409 1407 1406 1405 1404 1403 1402 1401 1400 1399 1399 1398 1397 1396 1395 1395 1394 1394 1394 1394 1394 1394 1395 1395 1395 1395 1395 1395 1395 1396 1396 1396 1396 1396 1396 1396 1396 1396 1397 1397 1398 1398 1399 1399 1400 1401 1401 1402 1403 1404 1405 1406 1407 1408
1444 1443 1441 1440 1440 1439 1438 1435 1434 1434 1435 1434 1432 1431 1430 1428 1425 1423 1422 1421 1421 1420 1419 1418 1416 1414 1413 1412 1411 1410 1409 1408 1407 1406 1405 1404 1402 1401 1400 1399 1398 1397 1396 1395 1394 1393 1392 1392 1392 1391 1391 1391 1391 1391 1391 1391 1391 1392 1392 1392 1392 1393 1393 1393 1393 1393 1393 1393 1393 1393 1394 1394 1394 1395 1396 1396 1397 1398 1399 1399 1400 1401 1402 1403 1404 1405
1443 1441 1440 1439 1438 1438 1437 1435 1434 1433 1433 1432 1430 1429 1429 1429 1427 1424 1421 1419 1419 1419 1418 1416 1415 1414 1412 1410 1409 1408 1408 1406 1404 1404 1403 1402 1401 1399 1398 1397 1396 1395 1394 1393 1391 1390 1389 1389 1389 1388 1388 1388 1388 1388 1388 1388 1388 1388 1388 1389 1389 1389 1389 1389 1390 1390 1390 1390 1390 1390 1390 1391 1391 1392 1393 1394 1394 1395 1396 1396 1397 1398 1399 1399 1401 1402
1441 1440 1439 1438 1437 1436 1435 1434 1433 1432 1431 1430 1429 1427 1427 1427 1427 1425 1422 1419 1417 1417 1416 1414 1413 1413 1412 1410 1408 1406 1406 1404 1403 1401 1400 1400 1399 1397 1396 1394 1394 1392 1391 1389 1388 1387 1387 1386 1385 1385 1384 1384 1384 1384 1384 1384 1384 1384 1384 1384 1385 1386 1387 1387 1386 1386 1387 1387 1387 1387 1387 1387 1388 1389 1389 1390 1391 1392 1393 1394 1394 1394 1395 1396 1397 1399
1440 1439 1438 1437 1436 1435 1434 1433 1431 1430 1430 1430 1429 1427 1425 1425 1425 1424 1422 1419 1418 1417 1415 1413 1411 1410 1410 1409 1408 1405 1404 1403 1401 1400 1399 1398 1397 1396 1394 1392 1391 1389 1388 1386 1385 1384 1384 1383 1383 1382 1381 1381 1380 1381 1381 1381 1381 1381 1381 1381 1380 1380 1382 1383 1383 1383 1383 1383 1383 1383 1383 1384 1384 1385 1386 1387 1388 1389 1389 1390 1391 1391 1392 1393 1394 1395
1440 1439 1438 1437 1435 1434 1434 1432 1431 1430 1429 1429 1428 1427 1425 1424 1423 1422 1421 1418 1417 1416 1415 1412 1409 1408 1408 1407 1406 1405 1403 1401 1399 1398 1397 1396 1395 1394 1393 1390 1388 1387 1386 1384 1382 1381 1381 1381 1380 1379 1378 1378 1377 1377 1377 1377 1378 1378 1378 1378 1377 1376 1376 1377 1378 1379 1379 1379 1379 1379 1379 1380 1380 1381 1382 1383 1384 1385 1386 1387 1388 1388 1389 1389 1390 1392
1439 1439 1437 1436 1435 1434 1433 1432 1431 1429 1429 1428 1427 1426 1424 1423 1422 1421 1420 1417 1415 1414 1413 1410 1408 1406 1406 1406 1405 1404 1402 1400 1398 1396 1395 1393 1393 1392 1391 1389 1386 1384 1384 1382 1380 1379 1379 1379 1378 1376 1375 1374 1374 1374 1374 1374 1374 1374 1374 1374 1374 1373 1372 1372 1373 1374 1375 1376 1376 1376 1376 1376 1377 1378 1379 1379 1381 1382 1383 1384 1384 1385 1386 1386 1387 1389
1439 1438 1437 1435 1434 1433 1432 1431 1430 1429 1427 1426 1426 1424 1423 1421 1420 1419 1419 1416 1414 1412 1411 1409 1407 1404 1403 1403 1403 1403 1401 1399 1397 1395 1394 1391 1390 1390 1390 1388 1384 1382 1381 1380 1378 1376 1376 1376 1375 1374 1373 1372 1372 1371 1371 1371 1371 1371 1371 1370 1370 1369 1369 1369 1369 1370 1371 1372 1373 1372 1372 1373 1374 1374 1375 1376 1378 1379 1379 1380 1381 1382 1383 1384 1384 1385
1439 1438 1436 1435 1433 1432 1431 1430 1429 1428 1426 1425 1424 1423 1422 1421 1419 1418 1417 1415 1414 1412 1410 1409 1407 1404 1400 1399 1399 1400 1400 1398 1395 1393 1392 1389 1388 1387 1388 1386 1383 1380 1379 1378 1376 1374 1374 1373 1373 1372 1371 1370 1370 1369 1369 1368 1368 1368 1368 1367 1367 1366 1366 1366 1366 1367 1367 1368 1369 1369 1369 1370 1370 1371 1372 1374 1375 1375 1376 1377 1378 1379 1379 1381 1382 1382
1438 1437 1436 1434 1433 1431 1430 1429 1427 1426 1425 1424 1423 1421 1420 1419 1418 1417 1415 1414 1413 1411 1409 1408 1406 1404 1402 1398 1396 1397 1399 1397 1394 1391 1390 1388 1385 1385 1385 1384 1381 1379 1377 1376 1374 1373 1372 1371 1370 1370 1369 1368 1368 1368 1367 1366 1366 1365 1364 1364 1364 1364 1364 1364 1364 1364 1363 1364 1365 1366 1367 1368 1368 1369 1370 1371 1372 1372 1373 1373 1374 1375 1376 1377 1378 1379
1436 1436 1435 1433 1431 1430 1429 1428 1426 1425 1424 1423 1422 1420 1418 1417 1416 1415 1414 1413 1412 1410 1409 1407 1405 1404 1402 1399 1396 1395 1397 1396 1393 1390 1389 1386 1384 1383 1383 1382 1379 1377 1375 1374 1372 1371 1370 1369 1368 1367 1367 1366 1365 1365 1365 1364 1364 1363 1362 1361 1361 1361 1360 1360 1360 1360 1360 1360 1361 1362 1363 1365 1366 1367 1367 1368 1368 1368 1369 1369 1370 1371 1373 1374 1375 1376
1435 1434 1434 1432 1430 1429 1427 1426 1425 1424 1423 1422 1420 1419 1417 1415 1414 1413 1412 1411 1410 1409 1407 1406 1404 1402 1401 1398 1395 1394 1394 1394 1392 1389 1387 1385 1382 1381 1381 1380 1378 1375 1374 1372 1370 1369 1368 1366 1365 1365 1364 1364 1363 1362 1362 1362 1361 1360 1359 1359 1358 1358 1357 1357 1357 1357 1358 1358 1358 1358 1359 1361 1363 1364 1364 1364 1364 1364 1364 1365 1367 1368 1369 1371 1372 1373
1433 1432 1432 1431 1430 1428 1426 1424 1424 1423 1422 1420 1419 1418 1416 1414 1413 1412 1411 1410 1409 1407 1406 1405 1403 1401 1399 1397 1394 1393 1393 1393 1391 1389 1386 1383 1381 1379 1379 1378 1376 1374 1372 1370 1368 1367 1366 1365 1364 1363 1362 1361 1360 1359 1359 1359 1358 1358 1357 1356 1355 1354 1354 1354 1354 1354 1354 1355 1355 1355 1355 1356 1358 1360 1361 1361 1360 1360 1361 1362 1364 1365 1366 1368 1369 1369
1432 1430 1430 1429 1429 1427 1425 1423 1422 1421 1420 1419 1418 1416 1414 1413 1412 1410 1409 1408 1407 1406 1404 1403 1401 1399 1398 1395 1393 1391 1391 1391 1390 1388 1385 1382 1379 1378 1378 1377 1375 1373 1370 1368 1366 1365 1364 1363 1362 1361 1360 1359 1359 1357 1356 1355 1354 1354 1354 1353 1352 1352 1351 1351 1351 1351 1351 1352 1352 1352 1352 1352 1353 1355 1357 1358 1358 1357 1358 1359 1360 1362 1363 1364 1365 1366
1431 1429 1428 1428 1427 1426 1424 1422 1421 1420 1419 1418 1417 1415 1414 1412 1411 1409 1407 1406 1405 1404 1402 1400 1398 1396 1395 1393 1391 1389 1389 1389 1388 1387 1385 1382 1379 1377 1377 1376 1374 1371 1369 1367 1365 1364 1362 1361 1360 1359 1359 1358 1356 1355 1354 1352 1351 1350 1350 1350 1349 1349 1349 1348 1348 1348 1348 1349 1349 1349 1349 1349 1349 1350 1353 1354 1355 1355 1355 1356 1357 1359 1360 1361 1362 1363
1429 1428 1427 1426 1425 1424 1423 1421 1420 1419 1418 1417 1415 1414 1412 1411 1409 1408 1406 1405 1404 1402 1400 1398 1396 1394 1392 1391 1390 1388 1387 1387 1387 1386 1384 1381 1379 1377 1375 1374 1372 1369 1367 1365 1364 1362 1360 1359 1358 1357 1356 1356 1355 1354 1352 1350 1349 1348 1347 1347 1347 1346 1346 1346 1346 1346 1345 1345 1346 1346 1347 1347 1347 1347 1349 1351 1352 1352 1353 1354 1355 1356 1357 1358 1359 1360
1428 1427 1426 1425 1424 1423 1422 1421 1419 1418 1417 1415 1414 1412 1410 1409 1407 1406 1405 1404 1402 1400 1398 1396 1394 1392 1391 1390 1388 1387 1385 1385 1385 1385 1383 1381 1378 1375 1374 1372 1370 1367 1365 1363 1362 1360 1359 1357 1356 1355 1354 1354 1353 1352 1350 1349 1348 1346 1345 1345 1344 1344 1344 1344 1343 1343 1343 1343 1343 1344 1344 1345 1344 1344 1347 1348 1349 1350 1350 1351 1352 1353 1354 1355 1356 1357
1427 1426 1424 1423 1422 1421 1420 1419 1417 1416 1415 1414 1412 1410 1408 1407 1405 1404 1403 1401 1400 1398 1397 1395 1393 1391 1390 1389 1387 1385 1384 1383 1384 1383 1382 1380 1377 1374 1372 1370 1369 1366 1364 1361 1360 1359 1358 1356 1354 1353 1352 1352 1351 1351 1349 1348 1347 1346 1344 1344 1343 1342 1342 1341 1341 1340 1340 1340 1340 1341 1342 1342 1342 1343 1345 1346 1347 1347 1348 1349 1349 1350 1351 1352 1353 1354
1424 1423 1422 1421 1419 1418 1417 1415 1414 1413 1412 1411 1410 1409 1407 1405 1404 1402 1400 1399 1398 1397 1396 1394 1392 1390 1389 1387 1386 1384 1382 1382 1381 1381 1380 1379 1376 1373 1370 1369 1367 1365 1363 1360 1359 1357 1356 1354 1352 1351 1350 1350 1349 1349 1349 1347 1346 1345 1344 1342 1341 1340 1340 1339 1339 1338 1337 1337 1338 1339 1339 1339 1339 1340 1343 1344 1344 1345 1345 1346 1347 1347 1348 1349 1349 1350
1422 1420 1419 1418 1416 1415 1414 1413 1411 1410 1409 1409 1408 1407 1406 1404 1402 1401 1399 1398 1397 1396 1395 1393 1391 1389 1388 1386 1384 1382 1381 1380 1380 1379 1379 1378 1375 1372 1369 1368 1366 1364 1362 1359 1357 1355 1354 1352 1351 1349 1349 1348 1348 1348 1347 1346 1345 1344 1343 1341 1339 1338 1337 1336 1336 1336 1335 1335 1335 1336 1337 1337 1337 1338 1340 1340 1341 1341 1342 1343 1344 1344 1345 1346 1346 1347
1419 1417 1416 1415 1414 1413 1411 1410 1409 1408 1407 1406 1405 1405 1404 1403 1401 1399 1398 1397 1396 1395 1394 1392 1390 1389 1387 1385 1383 1381 1380 1379 1379 1379 1378 1376 1374 1370 1368 1366 1365 1364 1362 1359 1356 1353 1351 1350 1349 1349 1348 1347 1347 1346 1345 1345 1344 1342 1340 1339 1338 1337 1335 1334 1334 1334 1334 1333 1333 1334 1334 1335 1335 1336 1336 1336 1337 1338 1339 1340 1341 1342 1343 1343 1344 1344
1415 1414 1413 1412 1411 1410 1409 1408 1407 1406 1405 1404 1404 1403 1402 1401 1400 1399 1397 1396 1395 1394 1392 1390 1389 1388 1386 1384 1382 1380 1378 1378 1378 1377 1377 1375 1372 1369 1367 1366 1364 1363 1362 1359 1356 1352 1349 1348 1347 1347 1347 1346 1345 1344 1344 1343 1342 1340 1339 1337 1336 1335 1334 1332 1331 1331 1332 1332 1332 1332 1333 1333 1333 1334 1334 1334 1334 1335 1336 1337 1339 1339 1340 1340 1341 1342
1413 1411 1410 1409 1408 1408 1407 1406 1405 1404 1403 1402 1401 1400 1399 1399 1398 1397 1396 1395 1394 1393 1391 1389 1388 1387 1385 1384 1382 1379 1377 1375 1375 1375 1375 1374 1371 1368 1367 1365 1363 1362 1361 1359 1357 1354 1349 1346 1345 1345 1345 1345 1344 1343 1342 1341 1341 1339 1338 1336 1335 1334 1333 1331 1329 1329 1329 1330 1330 1331 1331 1331 1331 1331 1331 1331 1332 1333 1334 1335 1336 1337 1338 1338 1339 1339
1410 1409 1408 1407 1406 1406 1405 1404 1403 1402 1401 1400 1399 1398 1398 1397 1396 1395 1394 1394 1393 1392 1390 1389 1387 1385 1384 1383 1382 1379 1377 1374 1374 1374 1374 1373 1370 1367 1366 1364 1362 1360 1359 1358 1358 1356 1352 1347 1344 1343 1343 1343 1342 1341 1340 1339 1339 1338 1337 1336 1334 1333 1332 1330 1328 1327 1327 1327 1328 1328 1329 1329 1329 1329 1329 1329 1330 1331 1332 1333 1334 1335 1335 1336 1337 1337
1408 1407 1406 1405 1404 1404 1403 1402 1401 1400 1399 1398 1397 1396 1396 1395 1394 1394 1393 1392 1391 1390 1389 1387 1385 1384 1382 1381 1379 1378 1375 1374 1373 1373 1373 1372 1369 1366 1364 1363 1361 1359 1357 1356 1355 1355 1353 1349 1345 1342 1340 1340 1339 1339 1338 1338 1337 1336 1336 1334 1333 1332 1330 1329 1328 1326 1325 1325 1325 1325 1325 1326 1327 1327 1327 1328 1328 1329 1330 1331 1332 1332 1333 1334 1334 1335
1406 1405 1404 1403 1402 1402 1401 1400 1399 1398 1397 1396 1395 1394 1394 1393 1393 1392 1391 1390 1389 1388 1387 1385 1384 1382 1381 1379 1377 1375 1374 1372 1372 1372 1371 1370 1368 1365 1363 1361 1359 1358 1356 1355 1353 1352 1350 1348 1345 1342 1339 1337 1337 1337 1336 1336 1335 1335 1334 1333 1332 1330 1329 1328 1327 1325 1324 1324 1324 1323 1323 1323 1324 1325 1326 1326 1327 1328 1328 1329 1329 1330 1331 1331 1333 1334
1404 1404 1403 1401 1400 1399 1399 1398 1397 1396 1396 1394 1394 1393 1392 1391 1391 1390 1389 1388 1387 1386 1384 1384 1382 1381 1380 1379 1376 1374 1372 1370 1370 1370 1369 1368 1366 1364 1362 1360 1358 1357 1355 1354 1352 1350 1348 1346 1344 1342 1339 1337 1335 1334 1334 1334 1334 1334 1333 1332 1331 1330 1329 1328 1326 1325 1324 1323 1323 1322 1322 1322 1322 1323 1324 1325 1325 1326 1327 1327 1328 1328 1329 1329 1330 1332
1403 1402 1401 1400 1399 1398 1397 1396 1396 1395 1394 1392 1391 1390 1390 1389 1389 1388 1387 1386 1385 1384 1382 1381 1380 1380 1379 1378 1376 1373 1370 1369 1368 1368 1368 1366 1365 1363 1361 1359 1357 1356 1354 1353 1351 1349 1347 1344 1342 1341 1339 1337 1334 1333 1333 1333 1333 1332 1331 1330 1329 1329 1328 1327 1326 1325 1324 1323 1322 1322 1321 1321 1321 1322 1322 1323 1324 1324 1325 1325 1326 1326 1327 1327 1329 1330
1402 1401 1400 1399 1398 1397 1396 1395 1394 1393 1391 1390 1389 1388 1388 1387 1386 1385 1384 1384 1383 1381 1380 1379 1378 1377 1376 1375 1374 1372 1370 1368 1367 1366 1366 1365 1363 1362 1359 1357 1355 1354 1354 1352 1350 1348 1346 1344 1341 1339 1338 1337 1335 1333 1331 1331 1331 1330 1330 1329 1328 1328 1327 1326 1326 1325 1324 1323 1322 1321 1321 1320 1320 1320 1321 1322 1322 1323 1323 1324 1324 1324 1325 1325 1326 1328
1401 1400 1399 1398 1397 1396 1395 1394 1392 1390 1389 1388 1387 1386 1385 1384 1384 1383 1382 1381 1380 1379 1378 1377 1375 1374 1374 1373 1371 1370 1369 1367 1366 1365 1364 1363 1361 1360 1358 1355 1354 1353 1352 1350 1349 1347 1345 1344 1341 1339 1337 1335 1334 1333 1331 1330 1329 1329 1328 1328 1327 1326 1325 1325 1325 1324 1323 1322 1321 1321 1320 1320 1320 1320 1320 1320 1321 1321 1321 1322 1322 1323 1323 1324 1324 1325
1400 1399 1398 1396 1395 1394 1393 1392 1390 1389 1388 1386 1385 1384 1383 1382 1381 1380 1380 1379 1378 1377 1376 1375 1374 1372 1371 1370 1369 1368 1367 1366 1365 1364 1362 1361 1359 1358 1356 1354 1352 1351 1350 1349 1347 1346 1344 1343 1341 1339 1337 1334 1332 1331 1330 1329 1328 1327 1327 1326 1325 1325 1324 1324 1324 1323 1322 1321 1320 1320 1319 1319 1319 1319 1319 1319 1319 1319 1319 1319 1320 1321 1321 1322 1323 1324
1399 1397 1396 1395 1394 1393 1392 1391 1389 1388 1386 1385 1384 1382 1381 1380 1379 1378 1377 1376 1376 1375 1374 1373 1372 1370 1369 1368 1367 1366 1365 1364 1363 1362 1360 1359 1358 1356 1354 1352 1350 1349 1348 1347 1345 1344 1343 1341 1339 1338 1336 1334 1332 1330 1329 1328 1327 1326 1326 1325 1324 1323 1323 1323 1323 1322 1321 1320 1319 1319 1318 1318 1318 1317 1317 1317 1317 1317 1317 1318 1318 1319 1319 1321 1321 1322
1397 1396 1395 1394 1393 1392 1391 1389 1388 1387 1385 1384 1382 1381 1379 1379 1377 1376 1374 1374 1373 1372 1371 1370 1369 1368 1367 1366 1365 1364 1363 1362 1361 1360 1358 1357 1355 1354 1352 1350 1349 1348 1346 1345 1344 1342 1341 1340 1338 1336 1334 1333 1331 1329 1328 1326 1326 1325 1325 1324 1323 1322 1322 1322 1322 1321 1321 1319 1319 1318 1318 1317 1317 1316 1316 1315 1315 1316 1316 1317 1317 1318 1318 1319 1320 1321
1397 1395 1394 1393 1391 1390 1389 1388 1387 1385 1384 1383 1381 1380 1379 1378 1376 1374 1373 1371 1370 1369 1369 1368 1366 1365 1364 1362 1362 1362 1361 1360 1359 1358 1356 1355 1353 1352 1350 1349 1347 1346 1345 1343 1342 1340 1339 1338 1337 1335 1333 1332 1330 1328 1326 1325 1324 1324 1324 1323 1322 1321 1320 1320 1320 1321 1320 1319 1318 1317 1317 1317 1316 1316 1315 1315 1315 1315 1315 1316 1316 1316 1316 1317 1318 1319
1395 1394 1393 1391 1390 1389 1388 1386 1385 1384 1383 1381 1380 1379 1378 1377 1375 1374 1372 1370 1369 1368 1367 1365 1364 1363 1361 1359 1359 1358 1358 1358 1357 1356 1354 1353 1351 1349 1348 1347 1346 1344 1343 1342 1340 1338 1337 1336 1335 1334 1332 1331 1329 1328 1325 1324 1322 1322 1321 1321 1321 1320 1319 1318 1319 1319 1319 1319 1318 1317 1316 1316 1316 1315 1315 1314 1314 1314 1314 1314 1315 1315 1315 1315 1316 1318
1394 1393 1391 1390 1389 1387 1386 1385 1384 1383 1382 1380 1379 1378 1377 1376 1374 1373 1371 1369 1368 1367 1365 1364 1363 1361 1359 1358 1357 1356 1355 1355 1354 1354 1353 1351 1349 1347 1346 1345 1344 1343 1342 1341 1339 1337 1335 1334 1333 1332 1331 1329 1328 1326 1324 1323 1321 1320 1319 1319 1319 1319 1318 1317 1317 1317 1318 1318 1317 1317 1316 1316 1315 1315 1314 1314 1313 1313 1313 1313 1313 1314 1314 1314 1315 1316
1393 1391 1390 1389 1388 1387 1385 1384 1383 1382 1380 1379 1378 1377 1376 1374 1373 1372 1370 1369 1367 1366 1364 1363 1362 1360 1358 1357 1355 1354 1353 1352 1352 1351 1350 1349 1348 1346 1345 1344 1343 1341 1340 1339 1338 1337 1335 1333 1331 1330 1329 1328 1326 1324 1323 1321 1320 1319 1318 1318 1318 1317 1317 1316 1316 1315 1315 1315 1316 1316 1316 1315 1315 1314 1313 1312 1312 1312 1312 1312 1312 1312 1313 1313 1314 1314
1392 1391 1389 1388 1387 1386 1384 1383 1382 1380 1379 1378 1377 1375 1374 1373 1372 1371 1369 1368 1367 1365 1364 1363 1361 1359 1358 1356 1354 1353 1352 1350 1349 1349 1348 1347 1345 1344 1344 1342 1341 1340 1339 1338 1336 1335 1334 1332 1330 1329 1327 1326 1324 1323 1321 1320 1319 1318 1317 1317 1316 1316 1315 1315 1314 1314 1314 1314 1314 1314 1314 1314 1314 1313 1312 1311 1310 1310 1310 1311 1311 1311 1311 1312 1313 1313
1391 1390 1389 1387 1386 1385 1383 1382 1381 1379 1378 1377 1375 1374 1373 1372 1371 1370 1369 1368 1367 1365 1363 1362 1360 1359 1357 1355 1354 1353 1351 1349 1348 1346 1345 1344 1343 1342 1341 1341 1340 1339 1338 1336 1335 1334 1332 1331 1330 1328 1327 1325 1323 1321 1320 1319 1318 1317 1316 1315 1315 1315 1314 1314 1313 1313 1313 1313 1313 1312 1312 1312 1312 1311 1311 1310 1309 1309 1309 1309 1310 1310 1310 1311 1312 1312
1391 1389 1388 1387 1385 1384 1382 1381 1379 1378 1377 1375 1374 1373 1372 1371 1370 1369 1369 1367 1366 1365 1363 1361 1359 1358 1356 1355 1354 1353 1351 1349 1348 1346 1344 1343 1342 1340 1339 1339 1338 1337 1336 1335 1334 1332 1331 1329 1328 1327 1326 1325 1323 1321 1319 1318 1317 1316 1315 1315 1315 1314 1314 1313 1313 1313 1312 1312 1311 1311 1311 1310 1310 1310 1310 1309 1308 1308 1308 1309 1309 1309 1310 1310 1311 1311
1390 1389 1387 1385 1384 1382 1381 1379 1379 1377 1376 1374 1373 1372 1371 1370 1370 1369 1368 1367 1365 1364 1363 1361 1359 1357 1356 1354 1353 1352 1351 1349 1347 1346 1344 1343 1341 1340 1339 1337 1336 1335 1334 1333 1332 1330 1329 1328 1327 1326 1325 1324 1323 1321 1319 1318 1316 1315 1315 1314 1314 1314 1313 1312 1312 1312 1312 1311 1310 1310 1310 1310 1309 1310 1309 1309 1309 1308 1308 1309 1309 1309 1309 1309 1310 1310
1389 1388 1386 1384 1383 1382 1380 1379 1378 1377 1375 1374 1373 1371 1370 1369 1369 1368 1367 1366 1365 1364 1362 1360 1359 1357 1355 1354 1352 1351 1350 1348 1347 1345 1344 1343 1341 1340 1338 1337 1335 1334 1332 1330 1329 1328 1327 1325 1325 1324 1324 1324 1323 1321 1320 1318 1316 1315 1315 1314 1314 1314 1313 1312 1312 1311 1311 1310 1310 1309 1309 1309 1309 1309 1309 1309 1309 1309 1309 1309 1309 1309 1309 1309 1309 1309
1387 1386 1385 1384 1382 1381 1379 1378 1377 1376 1375 1374 1372 1371 1370 1369 1368 1367 1366 1365 1364 1363 1361 1359 1358 1356 1354 1353 1351 1350 1349 1348 1346 1344 1343 1342 1341 1340 1339 1337 1335 1334 1332 1330 1328 1326 1325 1324 1322 1322 1322 1322 1322 1321 1320 1319 1317 1316 1315 1314 1314 1314 1313 1312 1312 1311 1310 1310 1309 1309 1309 1309 1309 1309 1309 1309 1309 1309 1309 1309 1309 1309 1309 1309 1309 1309